Preview of NWS' New Version of Forecast
This preview is not operational and should not be used for support decisions.

Regional Weather Roundup (RWR)

Issued by National Weather Service (NWS)

                            
000
ASUS43 KMKX 212121
RWRWI 

WISCONSIN REGIONAL WEATHER ROUNDUP
NATIONAL WEATHER SERVICE MILWAUKEE/SULLIVAN WI
400 PM CDT SAT SEP 21 2019

NOTE: "FAIR" INDICATES FEW OR NO CLOUDS BELOW 12,000 FEET WITH NO
SIGNIFICANT WEATHER AND/OR OBSTRUCTIONS TO VISIBILITY.

WIZ001-002-006>008-014>016-023>028-212200-
NORTHWEST WISCONSIN
  
CITY           SKY/WX    TMP DP  RH WIND       PRES   REMARKS
SUPERIOR ARPT  CLOUDY    75  70  83 SW8       29.68S                  
ASHLAND        CLOUDY    77  68  73 S12G28    29.73S                  
HAYWARD        CLOUDY    74  69  85 S15       29.77F                  
SIREN          PTSUNNY   76  69  81 S14G22    29.73F                  
CUMBERLAND     CLOUDY    72  68  88 S17       29.76F                  
RICE LAKE      CLOUDY    74  58  56 S12G21    29.78F                  
CHETEK         CLOUDY    73  71  95 S9        29.79F                  
LADYSMITH      CLOUDY    72  72  99 S10G17    29.83F                  
EAU CLAIRE     CLOUDY    78  68  71 S8        29.80F HX  80           
MENOMONIE      FAIR      74  67  77 SE10G18   29.78F                  
NEW RICHMOND   CLOUDY    76  68  75 S12       29.75F                  
OSCEOLA        FAIR      79  72  79 S15       29.76F HX  81           
$$
 
WIZ003>005-009-010-017-018-212200-
NORTH CENTRAL WISCONSIN
  
CITY           SKY/WX    TMP DP  RH WIND       PRES   REMARKS
MANITOWISH WTR DRIZZLE   70  70 100 S10G16    29.82S                  
ARBOR VITAE    CLOUDY    72  68  88 S10G20    29.84S                  
WOODRUFF       CLOUDY    72  68  88 S10G20    29.84S                  
RHINELANDER    CLOUDY    71  67  87 S9        29.87F                  
EAGLE RIVER    CLOUDY    70  69  98 S7        29.85F                  
LAND O LAKES   NOT AVBL                                               
PHILLIPS       LGT RAIN  70  70 100 S12       29.82S                  
TOMAHAWK       LGT RAIN  71  67  87 CALM      29.86S                  
MEDFORD        DRIZZLE   70  68  93 S13       29.86S                  
MERRILL        CLOUDY    73  70  89 S9        29.87S                  
$$
 
WIZ029-030-035-036-043>047-212200-
CENTRAL WISCONSIN
  
CITY           SKY/WX    TMP DP  RH WIND       PRES   REMARKS
WAUSAU         CLOUDY    73  69  87 S10G22    29.86S                  
MOSINEE        CLOUDY    72  72 100 S9        29.89S                  
MARSHFIELD     CLOUDY    73  68  84 S12G23    29.86S                  
STEVENS POINT  CLOUDY    72  69  93 S13       29.89S                  
WAUPACA        CLOUDY    75  71  87 S10       29.90S                  
WAUTOMA        NOT AVBL                                               
WISC RAPIDS    CLOUDY    74  68  81 S13G28    29.88F                  
CAMP DOUGLAS   FAIR      73  72  94 S8        29.89S                  
$$
 
WIZ011>013-019>022-031-037>040-048>050-212200-
NORTHEAST WISCONSIN
  
CITY           SKY/WX    TMP DP  RH WIND       PRES   REMARKS
ANTIGO         CLOUDY    70  69  96 S13G18    29.89F                  
SHAWANO        CLOUDY    75  71  86 S6G18     29.88F                  
OCONTO         CLOUDY    75  70  84 S9        29.89S                  
STURGEON BAY   CLOUDY    68  67  96 S13       29.92F                  
GREEN BAY      CLOUDY    75  69  81 S10       29.91F                  
MANITOWOC      NOT AVBL                                               
APPLETON       CLOUDY    73  66  78 S12G18    29.91F                  
CLINTONVILLE   CLOUDY    73  68  83 S8        29.88F                  
OSHKOSH        CLOUDY    73  69  87 S13G25    29.92F                  
$$
 
WIZ032>034-041-042-053>061-212200-
SOUTHWEST WISCONSIN
  
CITY           SKY/WX    TMP DP  RH WIND       PRES   REMARKS
LA CROSSE      CLOUDY    77  70  78 S15       29.85S                  
SPARTA         CLOUDY    71  67  85 SW8       29.88S                  
VIROQUA        CLOUDY    72  72 100 S14G22    29.91R                  
BOSCOBEL       LGT RAIN  76  69  79 S7        29.91S                  
PRAIRIE DU CHI CLOUDY    75  69  81 S10G17    29.90S                  
PLATTEVILLE    CLOUDY    73  73 100 S10       29.95F                  
$$

WIZ056-057-062-063-064-067-068-212200-
SOUTH CENTRAL WISCONSIN
  
CITY           SKY/WX    TMP DP  RH WIND       PRES   REMARKS
REEDSBURG      CLOUDY    73  72  94 S14       29.92S                  
BARABOO/DELLS  CLOUDY    72  68  87 SW16      29.92S                  
LONE ROCK      PTSUNNY   74  69  85 SW9       29.92F                  
MINERAL POINT  CLOUDY    73  73 100 S14G20    29.95F                  
MADISON        LGT RAIN  73  70  90 S10       29.95F                  
MIDDLETON      CLOUDY    73  69  86 SW9       29.97R                  
WATERTOWN      LGT RAIN  72  72 100 S10G17    29.97S                  
MONROE         CLOUDY    72  71  95 S13       29.98S                  
JANESVILLE     DRIZZLE   73  73 100 S8        29.99S                  
$$
 
WIZ051-052-058>065-066-070>072-212200-
SOUTHEAST WISCONSIN
  
CITY           SKY/WX    TMP DP  RH WIND       PRES   REMARKS
MILWAUKEE      LGT RAIN  74  70  87 S13G22    29.98F                  
WAUKESHA       CLOUDY    70  68  94 S9        30.00F                  
MILWAUKEE/TIMM CLOUDY    73  66  78 S12G18    30.00S                  
RACINE         LGT RAIN  74  69  85 S13G21    30.01F                  
KENOSHA        LGT RAIN  74  72  93 S13       30.01S                  
FOND DU LAC    LGT RAIN  74  69  85 S12G25    29.94F                  
SHEBOYGAN      CLOUDY    75  68  78 SW14G24   29.95F                  
WEST BEND      CLOUDY    72  70  94 SW12      29.97S                  
JUNEAU         RAIN      71  70  95 S10G17    29.97S                  
$$

LSZ147-162-212200-
LAKE SUPERIOR
  
STATION/POSITION TIME  TEMP    WIND        PRES    WAVE
                       AIR SEA DIR/SP/G            HT/PER
                 (UTC) (F)     (DEG/KT/KT) (MB)    (FT/S)
W MID LAKE BUOY  2050   61 55  180/ 10/ 12 1005.7R   2/ 3
DEVILS ISLAND    2100   64     250/  5/  8 1005.7S
SAXON HARBOR     2030   79     210/ 17/ 22 1006.4S
$$
 
LMZ867-665-643>646-212200-
LAKE MICHIGAN
  
STATION/POSITION TIME  TEMP    WIND        PRES    WAVE
                       AIR SEA DIR/SP/G            HT/PER
                 (UTC) (F)     (DEG/KT/KT) (MB)    (FT/S)
CHAMBERS ISLAND  2040   71     110/  6/ 14   N/A
N MID LAKE BUOY  2100   67 63  190/ 21/ 25 1013.3
NORTHPORT PIER   2040   69     130/  7/ 19 1012.9F
KEWAUNEE LAKESHO 2048   64     190/ 14/ 15 1013.5S
SHEBOYGAN LAKESH 2100   65     180/ 20/ 21 1014.1F
PORT WASHINGTON  2030   76     220/  7/ 15 1016.3R
ATWATER BUOY     1830   72 58  200/ 16/ 21 1016.5    2/ 4
MILWAUKEE LAKESH 1940   72     200/ 10/ 13   N/A
S MID LAKE BUOY  2100   71 69  190/ 16/ 19 1016.8
KENOSHA   LAKESH 2100   70     190/ 10/ 16 1015.9
$$

TC  - TEMPERATURE IN CELSIUS
VSB - VISIBILITY IN STATUTE MILES
WCI - WIND CHILL INDEX
HX  - HEAT INDEX